Simultaneous Nadir Overpasses (SNOs) Predictions

Prediction of SNOs between LANDSAT-8 and TERRA Satellite Orbit:

Table of predicted SNOs for the next 14.0 days since TLE Epoch: 11/28/2025
Index Date (LANDSAT-8) Time (LANDSAT-8) Lat,Lon (LANDSAT-8) SZA (LANDSAT-8 ) Date (TERRA) Time (TERRA) Lat,Lon (TERRA) SZA (TERRA ) Distance(km) Time Diff (sec)
1 12/11/2025 06:22:42 -81.83, -35.29 71.01 12/11/2025 06:23:55 -81.82, -35.15 70.96 2.32 73
2 12/11/2025 07:12:08 81.83, 132.43 109.00 12/11/2025 07:13:14 81.83, 132.47 109.04 0.72 66
3 12/11/2025 08:01:35 -81.83, -60.01 71.01 12/11/2025 08:02:33 -81.83, -59.99 70.97 0.70 58
4 12/11/2025 08:51:01 81.83, 107.70 109.01 12/11/2025 08:51:52 81.83, 107.63 109.03 1.43 51
5 12/11/2025 09:40:27 -81.83, -84.31 70.95 12/11/2025 09:41:10 -81.82, -84.42 70.95 1.79 43
6 12/11/2025 10:29:53 81.83, 83.41 109.06 12/11/2025 10:30:29 81.82, 83.20 109.06 3.38 36
7 12/11/2025 11:19:21 -81.83,-109.46 71.00 12/11/2025 11:19:48 -81.83,-109.26 70.96 3.19 27
8 12/11/2025 12:08:47 81.83, 58.26 109.02 12/11/2025 12:09:07 81.83, 58.35 109.04 1.59 20
9 12/11/2025 12:58:13 -81.83,-133.76 70.94 12/11/2025 12:58:25 -81.82,-133.69 70.93 1.33 12
10 12/11/2025 13:47:39 81.83, 33.96 109.07 12/11/2025 13:47:44 81.82, 33.92 109.07 0.87 5
11 12/11/2025 14:37:06 -81.83,-158.48 70.94 12/11/2025 14:37:03 -81.83,-158.53 70.95 0.84 3
12 12/11/2025 15:26:32 81.83, 9.24 109.08 12/11/2025 15:26:22 81.83, 9.08 109.05 2.59 10
13 12/11/2025 16:15:59 -81.83, 176.80 70.94 12/11/2025 16:15:41 -81.83, 176.63 70.96 2.82 18
14 12/11/2025 17:05:25 81.83, -15.48 109.08 12/11/2025 17:04:59 81.82, -15.35 109.08 2.21 26
15 12/11/2025 17:54:52 -81.83, 152.08 70.93 12/11/2025 17:54:18 -81.83, 152.20 70.94 1.93 34
16 12/11/2025 18:44:18 81.83, -40.21 109.08 12/11/2025 18:43:37 81.83, -40.20 109.06 0.13 41
17 12/11/2025 19:33:45 -81.83, 127.35 70.93 12/11/2025 19:32:56 -81.83, 127.35 70.95 0.48 49
18 12/11/2025 20:23:11 81.83, -64.93 109.09 12/11/2025 20:22:15 81.83, -65.05 109.05 1.96 56
19 12/11/2025 21:12:36 -81.83, 103.06 70.87 12/11/2025 21:11:32 -81.82, 102.93 70.92 2.18 64



Historial Predications of SNOs between LANDSAT-8 and TERRA
